Regional Weather Roundup
Issued by NWS Midland/Odessa, TX

Home | Current Version | Previous Version | Text Only | Print | Product List | Glossary On
Versions: 1 2 3 4 5 6 7 8 9 10 11 12 13 14 15 16 17 18 19 20 21 22 23 24 25 26 27 28 29 30 31 32 33 34 35 36 37 38 39 40 41 42 43 44 45 46 47 48 49 50
000
ASUS44 KMAF 032310
RWRMAF
MIDLAND AREA WEATHER ROUNDUP
NATIONAL WEATHER SERVICE MIDLAND TX
600 PM CDT TUE MAY 03 2016

...IN SOUTHWEST TEXAS AND SOUTHEAST NEW MEXICO...

CITY           SKY/WX    TMP DP  RH WIND       PRES   REMARKS
ALPINE         PTSUNNY   79  32  18 NE15G23   30.09S
ANDREWS        FAIR      77  33  20 W7        30.03F
ARTESIA        CLOUDY    75  37  25 N20       30.07R
BIG SPRING     MOSUNNY   75  37  25 S5        30.03F
CARLSBAD       SUNNY     81  31  16 E10       30.02S
DRYDEN           N/A     82  46  28 E9G17     29.98S
FORT STOCKTON  SUNNY     82  37  20 NE7G16    30.00S
GUAD PASS      SUNNY     78  23  13 W16G22    30.12S
HOBBS          PTSUNNY   75  28  17 W13G20    30.06R
MARFA          SUNNY     79  31  17 S3        30.07S
MIDLAND AIRPK  SUNNY     80  34  18 CALM      30.02F
MIDLAND INTL   SUNNY     82  36  19 N7        30.02S
ODESSA         MOSUNNY   80  34  19 VRB5      30.03S
PECOS          SUNNY     84  32  15 NE9       29.98F
PRESIDIO       FAIR      88  40  18 MISG      29.93F
SEMINOLE       PTSUNNY   78  32  18 NW10      30.04S
SNYDER           N/A     63  55  75 N12       30.08S
WINK           SUNNY     84  34  16 N7        29.99F
$$
...OTHER STATIONS IN TEXAS...

CITY           SKY/WX    TMP DP  RH WIND       PRES   REMARKS
ABILENE        PTSUNNY   73  46  38 VRB3      30.03R
AMARILLO       MOSUNNY   67  36  31 NW17      30.09S
AUSTIN         SUNNY     75  48  38 NE15      30.00F
BROWNSVILLE    CLOUDY    73  63  70 N8        29.97S
CORPUS CHRISTI PTSUNNY   79  52  38 E10       29.96F
DALLAS FTW     MOSUNNY   73  42  32 NE8       30.01F
DEL RIO        SUNNY     80  55  42 S8        29.96F
EL PASO        MOSUNNY   83  25  12 N10       30.02F
HOUSTON INT    SUNNY     74  49  41 N8        29.96F
LUBBOCK        PTSUNNY   63  51  65 NE8       30.08F
SAN ANGELO     SUNNY     79  44  28 S6        30.01F
SAN ANTONIO    SUNNY     79  45  29 NE9       29.99F
WACO           SUNNY     73  47  39 N9        30.02F
WICHITA FALLS  NOT AVBL
$$
...OTHER LOCATIONS IN NEW MEXICO...

CITY           SKY/WX    TMP DP  RH WIND       PRES   REMARKS
ALAMAGORDO     MOSUNNY   79  23  12 N12       30.07F
ALBUQUERQUE    MOSUNNY   73  22  14 VRB3      30.15S
CANNON AFB     MOSUNNY   70  33  25 N14       30.13R
CLOVIS         MOSUNNY   72  34  25 N15       30.14S
HOLLOMAN AFB   SUNNY     78  24  13 N8        30.05F
ROSWELL        SUNNY     75  35  23 N10       30.08F
RUIDOSO          N/A     63  27  25 NW15G22   30.23S
SANTA FE       PTSUNNY   69  17  13 N5        30.19S
TRUTH OR CONSE PTSUNNY   73  29  19 E5        30.10S
TUCUMCARI      SUNNY     74  24  15 N17G28    30.11S
$$




USA.gov is the U.S. government's official web portal to all federal, state and local government web resources and services.